Location: Bremen
(53.0793°N, 8.8017°E)
Time: 17:34:01
(UTC+01:00)

Vanguard 1 Rocket - Pass Details

Date: 12 December 2021
Orbit: 651 x 4224 km, 34.3° (Epoch: 23 January)

Event Time Altitude Azimuth Distance (km) Brightness Sun altitude
Rises 07:18:35 0° 265° (W) 5,789 - -9.8°
Exits shadow 07:19:06 - 263° (W) 5,732 11.0 -9.7°
Reaches altitude 10° 07:23:52 10° 247° (WSW) 5,390 10.9 -9.1°
Maximum altitude 07:33:27 18° 213° (SSW) 5,645 11.4 -7.8°
Drops below altitude 10° 07:45:53 10° 180° (S) 7,110 12.4 -6.2°
Sets 07:55:08 0° 165° (SSE) 8,424 13.1 -5.0°
